Weather History for Hebron, NE

Change the Weather History Date:

Monday, March 18, 2013

  Actual Average Record
Temperature  
Mean Temperature 41 °F -  
Max Temperature 49 °F 51 °F 78 °F (2012)
Min Temperature 34 °F 31 °F 5 °F (1965)
Degree Days  
Heating Degree Days 24    
Moisture  
Dew Point 24 °F    
Average Humidity 57    
Maximum Humidity 93    
Minimum Humidity 21    
Precipitation  
Precipitation 0.00 in - - ()
Sea Level Pressure  
Sea Level Pressure 29.91 in    
Wind  
Wind Speed 10 mph (NW)    
Max Wind Speed 22 mph    
Max Gust Speed 32 mph    
Visibility 8 miles    
Events Rain    
Averages and records for this station are not official NWS values.
T = Trace of Precipitation, MM = Missing Value Source: NWS Daily Summary

Daily Weather History Graph

Daily Weather History Graph

Search for Another Location

Airport:

Trip Planner

Search our weather history database for the weather conditions in past years. The results will help you decide how hot, cold, wet, or windy it might be!

Date:

Astronomy

Mar. 18, 2013 Rise Set
Actual Time 7:36 AM CDT 7:40 PM CDT
Civil Twilight 7:09 AM CDT 8:07 PM CDT
Nautical Twilight 6:37 AM CDT 8:39 PM CDT
Astronomical Twilight 6:05 AM CDT 9:11 PM CDT
Moon 11:36 AM CDT (3/18) 1:41 AM CDT (3/18)
Length of Visible Light 12h 58m
Length of Day
12h 04m
Waxing Crescent, 41% of the Moon is Illuminated
Mar 18
Waxing Crescent
Mar 19
First Quarter
Mar 27
Full
Apr 2
Last Quarter
Apr 10
New

Hourly Weather History & Observations

Time (CDT) Temp. Windchill Dew Point Humidity Pressure Visibility Wind Dir Wind Speed Gust Speed Precip Events Conditions
12:15 AM 36.7 °F 31.2 °F 34.0 °F 90% 29.77 in 4.0 mi SSE 6.9 mph - N/A Rain Light Rain
12:35 AM 36.5 °F 29.7 °F 34.0 °F 91% 29.76 in 3.0 mi SSE 9.2 mph - N/A   Overcast
12:55 AM 36.5 °F 31.0 °F 34.0 °F 91% 29.77 in 2.5 mi South 6.9 mph - N/A Rain Light Rain
1:15 AM 36.0 °F 26.7 °F 33.8 °F 92% 29.72 in 3.0 mi SE 15.0 mph - N/A Rain Light Rain
1:35 AM 36.0 °F 29.6 °F 33.8 °F 92% 29.76 in 4.0 mi SSW 8.1 mph - N/A   Overcast
1:55 AM 36.3 °F 30.1 °F 33.8 °F 91% 29.77 in 4.0 mi SSW 8.1 mph - N/A   Overcast
2:15 AM 36.1 °F 31.4 °F 33.8 °F 91% 29.78 in 3.0 mi SSW 5.8 mph - N/A   Overcast
2:35 AM 36.5 °F 31.0 °F 34.0 °F 91% 29.79 in 2.5 mi SW 6.9 mph - N/A   Overcast
2:55 AM 36.7 °F 30.5 °F 34.3 °F 91% 29.80 in 4.0 mi WSW 8.1 mph - N/A   Overcast
3:15 AM 37.0 °F 31.0 °F 34.7 °F 91% 29.81 in 3.0 mi West 8.1 mph - N/A   Overcast
3:35 AM 37.4 °F 31.4 °F 34.7 °F 90% 29.80 in 4.0 mi West 8.1 mph - N/A   Overcast
3:55 AM 37.4 °F 31.4 °F 34.9 °F 91% 29.80 in 2.0 mi West 8.1 mph - N/A   Overcast
4:15 AM 37.6 °F 32.3 °F 35.6 °F 93% 29.79 in 2.5 mi West 6.9 mph - N/A   Overcast
4:35 AM 37.8 °F 32.5 °F 35.6 °F 92% 29.79 in 4.0 mi West 6.9 mph - N/A   Overcast
4:55 AM 37.6 °F 31.6 °F 34.9 °F 90% 29.80 in 5.0 mi West 8.1 mph - N/A   Scattered Clouds
5:15 AM 36.7 °F 29.4 °F 33.8 °F 89% 29.81 in 7.0 mi WNW 10.4 mph - N/A   Clear
5:35 AM 36.5 °F 29.2 °F 32.5 °F 86% 29.82 in 7.0 mi WNW 10.4 mph - N/A   Clear
5:55 AM 36.1 °F 28.7 °F 32.0 °F 85% 29.82 in 10.0 mi WNW 10.4 mph - N/A   Clear
6:15 AM 35.8 °F 28.3 °F 31.1 °F 83% 29.82 in 10.0 mi WNW 10.4 mph - N/A   Clear
6:35 AM 35.4 °F 28.4 °F 30.6 °F 82% 29.83 in 10.0 mi NW 9.2 mph - N/A   Clear
6:55 AM 35.1 °F 27.4 °F 29.5 °F 80% 29.84 in 10.0 mi NW 10.4 mph - N/A   Clear
7:15 AM 34.7 °F 27.5 °F 28.4 °F 78% 29.85 in 10.0 mi NW 9.2 mph - N/A   Clear
7:35 AM 34.0 °F 26.6 °F 28.0 °F 79% 29.87 in 10.0 mi NW 9.2 mph - N/A   Clear
7:55 AM 34.2 °F 26.2 °F 27.5 °F 77% 29.88 in 10.0 mi NW 10.4 mph - N/A   Clear
8:15 AM 34.7 °F 26.4 °F 26.4 °F 72% 29.88 in 10.0 mi NW 11.5 mph - N/A   Clear
8:35 AM 35.1 °F 26.9 °F 25.2 °F 67% 29.88 in 10.0 mi NNW 11.5 mph - N/A   Clear
8:55 AM 35.8 °F 26.5 °F 24.8 °F 64% 29.89 in 10.0 mi NNW 15.0 mph 18.4 mph N/A   Clear
9:15 AM 36.9 °F 28.7 °F 24.4 °F 61% 29.89 in 10.0 mi NNW 12.7 mph 19.6 mph N/A   Clear
9:35 AM 37.9 °F 30.9 °F 25.7 °F 61% 29.90 in 10.0 mi NNW 10.4 mph - N/A   Clear
9:55 AM 38.3 °F 30.1 °F 25.2 °F 59% 29.90 in 10.0 mi NNW 13.8 mph - N/A   Clear
10:15 AM 39.2 °F 32.5 °F 26.8 °F 61% 29.91 in 10.0 mi WNW 10.4 mph - N/A   Clear
10:35 AM 40.3 °F 33.4 °F 27.9 °F 61% 29.91 in 10.0 mi NW 11.5 mph - N/A   Clear
10:55 AM 41.2 °F 34.1 °F 27.0 °F 57% 29.92 in 10.0 mi NNW 12.7 mph - N/A   Clear
11:15 AM 41.7 °F 34.4 °F 26.2 °F 54% 29.92 in 10.0 mi NW 13.8 mph 23.0 mph N/A   Clear
11:35 AM 41.9 °F 33.7 °F 25.9 °F 53% 29.93 in 10.0 mi NW 17.3 mph 21.9 mph N/A   Clear
11:55 AM 42.4 °F 35.3 °F 26.1 °F 52% 29.93 in 10.0 mi NW 13.8 mph - N/A   Clear
12:15 PM 43.9 °F 36.5 °F 26.6 °F 51% 29.94 in 10.0 mi NNW 16.1 mph 21.9 mph N/A   Clear
12:35 PM 44.8 °F 37.4 °F 25.9 °F 48% 29.94 in 10.0 mi NW 17.3 mph 25.3 mph N/A   Clear
12:55 PM 45.3 °F 38.7 °F 26.4 °F 48% 29.94 in 10.0 mi NNW 15.0 mph 23.0 mph N/A   Clear
1:15 PM 45.5 °F 38.6 °F 26.4 °F 47% 29.95 in 10.0 mi WNW 16.1 mph 23.0 mph N/A   Clear
1:35 PM 46.4 °F 39.8 °F 26.1 °F 45% 29.95 in 10.0 mi NW 16.1 mph 25.3 mph N/A   Scattered Clouds
1:55 PM 47.3 °F - 25.2 °F 42% 29.94 in 10.0 mi NW 19.6 mph 26.5 mph N/A   Clear
2:15 PM 46.9 °F - 21.9 °F 37% 29.94 in 10.0 mi NW 21.9 mph 28.8 mph N/A   Clear
2:35 PM 47.5 °F - 20.8 °F 35% 29.94 in 10.0 mi NNW 19.6 mph 29.9 mph N/A   Clear
2:55 PM 48.4 °F - 20.5 °F 33% 29.94 in 10.0 mi NNW 17.3 mph 32.2 mph N/A   Clear
3:15 PM 48.2 °F - 21.2 °F 34% 29.94 in 10.0 mi NNW 21.9 mph 32.2 mph N/A   Clear
3:35 PM 48.2 °F - 20.3 °F 33% 29.94 in 10.0 mi NW 18.4 mph 32.2 mph N/A   Clear
3:55 PM 48.6 °F - 19.4 °F 32% 29.94 in 10.0 mi NNW 21.9 mph 29.9 mph N/A   Clear
4:15 PM 48.6 °F - 18.1 °F 30% 29.95 in 10.0 mi NW 18.4 mph 31.1 mph N/A   Clear
4:35 PM 48.6 °F - 16.0 °F 27% 29.95 in 10.0 mi NW 17.3 mph 24.2 mph N/A   Clear
4:55 PM 48.2 °F - 14.4 °F 26% 29.95 in 10.0 mi NW 20.7 mph 27.6 mph N/A   Clear
5:15 PM 48.9 °F - 13.3 °F 24% 29.95 in 10.0 mi NW 18.4 mph 27.6 mph N/A   Clear
5:35 PM 48.7 °F - 10.0 °F 21% 29.96 in 10.0 mi NW 20.7 mph 31.1 mph N/A   Clear
5:55 PM 47.8 °F - 9.9 °F 22% 29.96 in 10.0 mi NW 17.3 mph 21.9 mph N/A   Clear
6:15 PM 47.3 °F - 11.5 °F 24% 29.96 in 10.0 mi NNW 15.0 mph 21.9 mph N/A   Clear
6:35 PM 46.6 °F - 11.3 °F 24% 29.97 in 10.0 mi NNW 12.7 mph - N/A   Clear
6:55 PM 45.5 °F 39.2 °F 10.4 °F 24% 29.98 in 10.0 mi NNW 13.8 mph - N/A   Clear
7:15 PM 44.2 °F 37.6 °F 10.2 °F 25% 29.98 in 10.0 mi North 13.8 mph - N/A   Clear
7:35 PM 42.8 °F 37.5 °F 10.9 °F 27% 29.99 in 10.0 mi North 9.2 mph - N/A   Clear
7:55 PM 41.2 °F 36.0 °F 11.1 °F 29% 29.99 in 10.0 mi North 8.1 mph - N/A   Clear
8:15 PM 39.9 °F 35.8 °F 13.3 °F 34% 30.00 in 10.0 mi North 5.8 mph - N/A   Clear
8:35 PM 38.7 °F 33.6 °F 14.2 °F 37% 30.00 in 10.0 mi North 6.9 mph - N/A   Clear
8:55 PM 37.4 °F 33.8 °F 14.4 °F 39% 30.02 in 10.0 mi North 4.6 mph - N/A   Clear
9:15 PM 36.5 °F 33.9 °F 14.7 °F 41% 30.02 in 10.0 mi North 3.5 mph - N/A   Scattered Clouds
9:35 PM 37.0 °F 33.3 °F 14.0 °F 39% 30.03 in 10.0 mi North 4.6 mph - N/A   Mostly Cloudy
9:55 PM 37.6 °F 33.1 °F 11.7 °F 34% 30.04 in 10.0 mi North 5.8 mph - N/A   Overcast
10:15 PM 37.4 °F 34.9 °F 12.6 °F 36% 30.05 in 10.0 mi NNE 3.5 mph - N/A   Overcast
10:55 PM 37.0 °F 32.4 °F 14.0 °F 39% 30.05 in 10.0 mi NNE 5.8 mph - N/A   Overcast
11:15 PM 36.5 °F - 14.0 °F 40% 30.07 in 10.0 mi Calm Calm - N/A   Overcast
11:35 PM 36.7 °F - 13.6 °F 39% 30.08 in 10.0 mi Calm Calm - N/A   Overcast
11:55 PM 36.5 °F - 13.6 °F 39% 30.09 in 10.0 mi Calm Calm - N/A   Overcast